Location: Corcelles
(46.1547°N, 4.7234°E)
Time: 08:29:54
(UTC+00:00)

Resurs 1-4 Rocket - Pass Details

Date: 14 July 2020
Orbit: 799 x 814 km, 98.6° (Epoch: 14 August)

Event Time Altitude Azimuth Distance (km) Brightness Sun altitude
Rises 03:02:29 0° 0° (N) 3,349 6.1 -9.1°
Reaches altitude 10° 03:05:40 10° 341° (NNW) 2,411 4.9 -8.7°
Maximum altitude 03:08:52 16° 303° (WNW) 1,985 4.0 -8.3°
Drops below altitude 10° 03:12:04 10° 266° (W) 2,397 4.1 -7.9°
Enters shadow 03:13:26 - 255° (WSW) 2,760 4.3 -7.7°
